星链-5078 (STARLINK-5078 )

导读 | 星芒AI

STARLINK-5078 是 SpaceX 星链计划中的一颗低轨通信卫星,属于星链第三代组网卫星的一部分。该卫星于2023年发射,旨在为全球提供高速互联网服务,尤其关注偏远和网络覆盖不足的地区。它运行在约550公里高的近地轨道,采用先进通信技术,支持高带宽和低延迟数据传输。作为星链系统的重要组成,STARLINK-5078 有助于提升全球互联网接入的普及率与稳定性。

基本信息
目录编号:
54857
目录名称:
STARLINK-5078
国际标识:
2022-177AP
轨道中心:
EARTH
卫星名称:
星链-5078
卫星全名:
星链-5078 (STARLINK-5078 )
卫星状态:
在轨 (已飞行1042 天)
发射日期:
2022-12-28 UTC
国别 :
美国 (US)
星等 :
--
轨道信息
数据来源 国际轨道数据 AOE轨道数据
星历时间 2025-11-04T10:30:15+0800
20小时前
查看轨道信息
2025-11-03T10:00:00+0800
1天前
查看轨道信息
半长轴 6937.212km 6937.22km
偏心率 0.0001279 0.0001334
轨道倾角 43.004° 43.004°
近地点辐角 270.300° 256.416°
升交点赤经 82.752° 88.300°
平近点角 89.770° 334.521°
近地点 558.189km 558.159km
远地点 559.965km 560.011km
周期 95.838分钟 95.838分钟
每日圈数 15.025375 15.02535
详细信息
固有亮度:
5
最大亮度:
2.5
卫星平台:
Starlink v1.5
覆盖范围:
全球
运营商:
太空探索技术公司
运营商所在国:
美国
制造商(研发单位):
太空探索技术公司
制造商所在国:
美国
使用方式:
暂无
卫星简介
星链(Starlink)计划是由太空探索技术公司(SpaceX)提出的一个巨型低轨卫星互联网星座项目,计划在2019年至2024年间在太空搭建由约1.2万颗卫星组成的“星链”网络,其中1584颗将部署在地球上空550千米处的近地轨道,并从2020年开始工作。该卫星仍在工作。
2D轨道图
3D轨道图
轨道高度分析图
轨道倾角分析图
轨道综合分析图
查看轨道综合分析图